Change the Weather History Date:

Saturday, June 2, 2012

  Actual Average Record
Temperature  
Mean Temperature 72 °F -  
Max Temperature 89 °F 87 °F 102 °F (2011)
Min Temperature 55 °F 63 °F 51 °F (1966)
Cooling Degree Days 6    
Growing Degree Days 22 (Base 50)    
Moisture  
Dew Point 54 °F    
Average Humidity 58    
Maximum Humidity 96    
Minimum Humidity 24    
Precipitation  
Precipitation 0.00 in - - ()
Sea Level Pressure  
Sea Level Pressure 29.97 in    
Wind  
Wind Speed 2 mph (South)    
Max Wind Speed 9 mph    
Max Gust Speed -    
Visibility 10 miles    
Events      
Averages and records for this station are not official NWS values.
T = Trace of Precipitation, MM = Missing Value Source: NWS Daily Summary

Daily Weather History Graph

Daily Weather History Graph

Search for Another Location

Airport or City:

Trip Planner

Search our weather history database for the weather conditions in past years. The results will help you decide how hot, cold, wet, or windy it might be!

Date:

Astronomy

Jun. 02, 2012 Rise Set
Actual Time 5:58 AM CDT 8:01 PM CDT
Civil Twilight 5:30 AM CDT 8:29 PM CDT
Nautical Twilight 4:57 AM CDT 9:03 PM CDT
Astronomical Twilight 4:21 AM CDT 9:39 PM CDT
Moon 6:20 PM CDT 4:11 AM CDT
Length of Visible Light 14h 58m
Length of Day
14h 03m
Waxing Gibbous, 95% of the Moon is Illuminated
Jun 2
Waxing Gibbous
Jun 4
Full
Jun 11
Last Quarter
Jun 19
New
Jun 26
First Quarter

Hourly Weather History & Observations

Time (CDT) Temp. Heat Index Dew Point Humidity Pressure Visibility Wind Dir Wind Speed Gust Speed Precip Events Conditions
1:53 AM 60.1 °F - 55.9 °F 86% 29.96 in 10.0 mi Calm Calm - N/A   Clear
2:53 AM 59.0 °F - 55.0 °F 87% 29.95 in 10.0 mi Calm Calm - N/A   Clear
3:53 AM 57.9 °F - 55.0 °F 90% 29.95 in 10.0 mi Calm Calm - N/A   Clear
4:53 AM 57.0 °F - 55.0 °F 93% 29.96 in 10.0 mi Calm Calm - N/A   Clear
5:53 AM 55.0 °F - 54.0 °F 96% 29.98 in 10.0 mi Calm Calm - N/A   Clear
6:53 AM 59.0 °F - 57.0 °F 93% 30.01 in 10.0 mi Calm Calm - N/A   Overcast
7:53 AM 64.9 °F - 55.9 °F 73% 30.03 in 10.0 mi Calm Calm - N/A   Mostly Cloudy
8:53 AM 69.1 °F - 55.9 °F 63% 30.04 in 10.0 mi SSE 4.6 mph - N/A   Clear
9:53 AM 73.0 °F - 54.0 °F 51% 30.03 in 10.0 mi North 3.5 mph - N/A   Clear
10:53 AM 77.0 °F - 53.1 °F 43% 30.02 in 10.0 mi Variable 3.5 mph - N/A   Clear
11:53 AM 81.0 °F - 50.0 °F 34% 30.02 in 10.0 mi Variable 3.5 mph - N/A   Clear
12:53 PM 82.0 °F - 43.0 °F 25% 30.00 in 10.0 mi Variable 3.5 mph - N/A   Clear
1:53 PM 84.9 °F - 48.0 °F 28% 29.99 in 10.0 mi Variable 5.8 mph - N/A   Clear
2:53 PM 87.1 °F - 46.9 °F 25% 29.96 in 10.0 mi Variable 4.6 mph - N/A   Clear
3:53 PM 87.1 °F - 46.0 °F 24% 29.94 in 10.0 mi Variable 4.6 mph - N/A   Clear
4:53 PM 88.0 °F - 48.0 °F 25% 29.92 in 10.0 mi Calm Calm - N/A   Clear
5:53 PM 88.0 °F - 51.1 °F 28% 29.91 in 10.0 mi Variable 4.6 mph - N/A   Clear
6:53 PM 84.9 °F 83.7 °F 55.9 °F 37% 29.92 in 10.0 mi South 9.2 mph - N/A   Clear
7:53 PM 80.1 °F 80.6 °F 57.9 °F 47% 29.93 in 10.0 mi South 4.6 mph - N/A   Clear
8:53 PM 75.9 °F - 59.0 °F 56% 29.94 in 10.0 mi South 4.6 mph - N/A   Clear
9:53 PM 72.0 °F - 61.0 °F 68% 29.95 in 10.0 mi Calm Calm - N/A   Clear
10:53 PM 70.0 °F - 62.1 °F 76% 29.96 in 10.0 mi Calm Calm - N/A   Clear
11:53 PM 68.0 °F - 62.1 °F 81% 29.96 in 10.0 mi Calm Calm - N/A   Clear